| time (UTC) | temp F | wind direction | speed knots | gust knots | rain 1hr in | rain 24hr in | rain mn in | humidity % | barometer mb |
| 20260507125510 | 49 | 261 | 5.2 | 13.0 | 0.00 | 0.11 | 0.11 | 76 | 1022.4 |
| 20260507125006 | 49 | 246 | 7.0 | 13.0 | 0.00 | 0.11 | 0.11 | 76 | 1022.4 |
| 20260507124526 | 49 | 251 | 7.0 | 13.0 | 0.00 | 0.11 | 0.11 | 76 | 1022.4 |
| 20260507124009 | 49 | 258 | 4.3 | 14.8 | 0.00 | 0.11 | 0.11 | 76 | 1022.5 |
| 20260507123024 | 49 | 259 | 7.8 | 14.8 | 0.00 | 0.11 | 0.11 | 76 | 1022.6 |
| 20260507122507 | 49 | 257 | 7.0 | 13.9 | 0.00 | 0.11 | 0.11 | 76 | 1022.7 |
| 20260507122006 | 49 | 256 | 8.7 | 13.9 | 0.00 | 0.11 | 0.11 | 76 | 1022.8 |
| 20260507121506 | 49 | 268 | 5.2 | 10.4 | 0.00 | 0.11 | 0.11 | 76 | 1022.7 |
| 20260507121004 | 48 | 262 | 5.2 | 10.4 | 0.00 | 0.11 | 0.11 | 76 | 1022.8 |
| 20260507120503 | 48 | 274 | 6.1 | 10.4 | 0.00 | 0.11 | 0.11 | 76 | 1022.9 |
| 20260507115506 | 48 | 245 | 6.1 | 12.2 | 0.00 | 0.11 | 0.11 | 76 | 1022.9 |
| 20260507115009 | 48 | 272 | 6.1 | 9.6 | 0.00 | 0.11 | 0.11 | 76 | 1023.0 |
| 20260507114511 | 48 | 272 | 6.1 | 8.7 | 0.00 | 0.11 | 0.11 | 76 | 1023.0 |
| 20260507114008 | 48 | 266 | 2.6 | 7.8 | 0.00 | 0.11 | 0.11 | 76 | 1023.0 |
| 20260507113506 | 48 | 264 | 4.3 | 11.3 | 0.00 | 0.11 | 0.11 | 75 | 1022.9 |
| 20260507113004 | 48 | 277 | 5.2 | 11.3 | 0.00 | 0.11 | 0.11 | 75 | 1022.9 |
| 20260507112504 | 48 | 269 | 7.0 | 10.4 | 0.00 | 0.11 | 0.11 | 75 | 1023.0 |
| 20260507112003 | 48 | 267 | 7.0 | 10.4 | 0.00 | 0.11 | 0.11 | 75 | 1023.0 |
| 20260507111507 | 48 | 273 | 3.5 | 10.4 | 0.00 | 0.12 | 0.11 | 75 | 1023.0 |
| 20260507111004 | 48 | 250 | 4.3 | 10.4 | 0.00 | 0.12 | 0.11 | 75 | 1022.9 |
| 20260507110501 | 48 | 238 | 5.2 | 10.4 | 0.00 | 0.12 | 0.11 | 75 | 1023.1 |
| 20260507110011 | 48 | 270 | 4.3 | 10.4 | 0.00 | 0.12 | 0.11 | 75 | 1023.2 |
| 20260507105501 | 48 | 272 | 6.1 | 9.6 | 0.00 | 0.13 | 0.11 | 75 | 1023.1 |
| 20260507105002 | 48 | 243 | 5.2 | 8.7 | 0.00 | 0.14 | 0.11 | 75 | 1023.2 |
| 20260507104504 | 48 | 278 | 3.5 | 7.8 | 0.00 | 0.14 | 0.11 | 74 | 1023.2 |
| 20260507104001 | 48 | 245 | 5.2 | 9.6 | 0.00 | 0.15 | 0.11 | 75 | 1023.3 |
| 20260507103503 | 48 | 250 | 4.3 | 9.6 | 0.00 | 0.16 | 0.11 | 75 | 1023.6 |
| 20260507103008 | 48 | 239 | 4.3 | 9.6 | 0.00 | 0.16 | 0.11 | 75 | 1023.6 |
| 20260507102502 | 47 | 268 | 2.6 | 7.8 | 0.00 | 0.17 | 0.11 | 75 | 1023.5 |
| 20260507102006 | 48 | 270 | 2.6 | 8.7 | 0.00 | 0.18 | 0.11 | 75 | 1023.4 |
| 20260507101508 | 48 | 259 | 4.3 | 8.7 | 0.00 | 0.18 | 0.11 | 74 | 1023.5 |
| 20260507101005 | 48 | 246 | 3.5 | 12.2 | 0.00 | 0.22 | 0.11 | 74 | 1023.5 |
| 20260507100504 | 48 | 261 | 6.1 | 12.2 | 0.00 | 0.30 | 0.11 | 74 | 1023.5 |
| 20260507100005 | 48 | 288 | 7.0 | 11.3 | 0.00 | 0.34 | 0.11 | 73 | 1023.5 |
| 20260507095505 | 48 | 250 | 6.1 | 12.2 | 0.00 | 0.34 | 0.11 | 73 | 1023.4 |
| 20260507095008 | 48 | 262 | 7.8 | 12.2 | 0.00 | 0.34 | 0.11 | 73 | 1023.5 |
| 20260507094514 | 48 | 240 | 5.2 | 13.0 | 0.00 | 0.34 | 0.11 | 73 | 1023.5 |
| 20260507094003 | 48 | 268 | 7.8 | 12.2 | 0.00 | 0.34 | 0.11 | 72 | 1023.5 |
| 20260507093504 | 48 | 250 | 7.0 | 12.2 | 0.00 | 0.34 | 0.11 | 72 | 1023.5 |
| 20260507093004 | 48 | 251 | 7.8 | 12.2 | 0.00 | 0.34 | 0.11 | 72 | 1023.5 |
| 20260507092502 | 48 | 243 | 5.2 | 13.9 | 0.00 | 0.34 | 0.11 | 72 | 1023.4 |
| 20260507092001 | 48 | 264 | 7.8 | 13.9 | 0.00 | 0.34 | 0.11 | 72 | 1023.4 |
| 20260507091513 | 48 | 293 | 3.5 | 8.7 | 0.00 | 0.35 | 0.11 | 72 | 1023.4 |
| 20260507091004 | 48 | 248 | 2.6 | 9.6 | 0.00 | 0.36 | 0.11 | 71 | 1023.2 |
| 20260507090503 | 48 | 269 | 6.1 | 10.4 | 0.00 | 0.36 | 0.11 | 70 | 1023.0 |
| 20260507090008 | 48 | 244 | 6.1 | 10.4 | 0.00 | 0.36 | 0.11 | 70 | 1023.1 |
| 20260507085503 | 48 | 289 | 4.3 | 9.6 | 0.00 | 0.36 | 0.11 | 70 | 1023.2 |
| 20260507085003 | 48 | 267 | 6.1 | 9.6 | 0.00 | 0.36 | 0.11 | 70 | 1023.0 |
| 20260507084506 | 49 | 262 | 3.5 | 7.8 | 0.00 | 0.36 | 0.11 | 70 | 1022.9 |
| 20260507084003 | 49 | 251 | 3.5 | 7.8 | 0.00 | 0.36 | 0.11 | 69 | 1022.9 |
| 20260507083505 | 49 | 254 | 5.2 | 8.7 | 0.00 | 0.36 | 0.11 | 69 | 1022.8 |
| 20260507083006 | 49 | 235 | 2.6 | 10.4 | 0.00 | 0.36 | 0.11 | 68 | 1022.7 |
| 20260507082508 | 49 | 243 | 5.2 | 10.4 | 0.00 | 0.36 | 0.11 | 68 | 1022.7 |
| 20260507082005 | 49 | 255 | 3.5 | 9.6 | 0.00 | 0.36 | 0.11 | 68 | 1022.7 |
| 20260507081505 | 49 | 226 | 5.2 | 11.3 | 0.00 | 0.36 | 0.11 | 68 | 1022.6 |
| 20260507081004 | 49 | 246 | 4.3 | 11.3 | 0.00 | 0.36 | 0.11 | 68 | 1022.7 |
| 20260507080503 | 49 | 223 | 6.1 | 13.9 | 0.00 | 0.36 | 0.11 | 67 | 1022.6 |
| 20260507080005 | 49 | 218 | 7.0 | 15.6 | 0.00 | 0.36 | 0.11 | 67 | 1022.6 |
| 20260507075505 | 49 | 241 | 7.0 | 16.5 | 0.00 | 0.36 | 0.11 | 67 | 1022.7 |
| 20260507075007 | 49 | 233 | 9.6 | 16.5 | 0.00 | 0.36 | 0.11 | 68 | 1022.8 |
| 20260507074508 | 49 | 268 | 3.5 | 9.6 | 0.00 | 0.36 | 0.11 | 69 | 1022.6 |
| 20260507074005 | 49 | 229 | 4.3 | 9.6 | 0.00 | 0.36 | 0.11 | 69 | 1022.6 |
| 20260507073502 | 49 | 254 | 3.5 | 8.7 | 0.00 | 0.36 | 0.11 | 69 | 1022.7 |
| 20260507073013 | 49 | 228 | 5.2 | 7.8 | 0.00 | 0.36 | 0.11 | 69 | 1022.6 |
| 20260507072505 | 49 | 237 | 3.5 | 7.8 | 0.00 | 0.36 | 0.11 | 70 | 1022.6 |
| 20260507072004 | 49 | 245 | 3.5 | 7.8 | 0.00 | 0.36 | 0.11 | 71 | 1022.6 |
| 20260507071509 | 48 | 241 | 3.5 | 6.1 | 0.00 | 0.36 | 0.11 | 72 | 1022.6 |
| 20260507071004 | 48 | 267 | 1.7 | 7.0 | 0.00 | 0.36 | 0.11 | 72 | 1022.6 |
| 20260507070508 | 48 | 262 | 3.5 | 7.0 | 0.00 | 0.36 | 0.11 | 72 | 1022.6 |
| 20260507065503 | 48 | 260 | 1.7 | 5.2 | 0.00 | 0.36 | 0.11 | 72 | 1022.5 |
| 20260507065001 | 48 | 260 | 2.6 | 9.6 | 0.00 | 0.36 | 0.11 | 71 | 1022.6 |
| 20260507064510 | 48 | 214 | 4.3 | 9.6 | 0.00 | 0.36 | 0.11 | 70 | 1022.6 |
| 20260507064004 | 48 | 204 | 3.5 | 9.6 | 0.00 | 0.36 | 0.11 | 70 | 1022.6 |
| 20260507063505 | 48 | 220 | 5.2 | 10.4 | 0.00 | 0.36 | 0.11 | 70 | 1022.6 |
| 20260507063006 | 48 | 245 | 7.0 | 11.3 | 0.00 | 0.36 | 0.11 | 69 | 1022.7 |
| 20260507062508 | 48 | 189 | 6.1 | 12.2 | 0.00 | 0.36 | 0.11 | 70 | 1022.7 |
| 20260507062006 | 49 | 247 | 8.7 | 12.2 | 0.00 | 0.36 | 0.11 | 69 | 1022.8 |
| 20260507061526 | 49 | 237 | 7.0 | 12.2 | 0.00 | 0.36 | 0.11 | 69 | 1022.8 |
| 20260507061008 | 48 | 222 | 7.0 | 12.2 | 0.00 | 0.36 | 0.11 | 70 | 1022.7 |
| 20260507060504 | 48 | 217 | 4.3 | 11.3 | 0.00 | 0.36 | 0.11 | 71 | 1022.7 |
| 20260507060021 | 48 | 212 | 6.1 | 12.2 | 0.00 | 0.36 | 0.11 | 71 | 1022.7 |
| 20260507055507 | 48 | 226 | 6.1 | 13.0 | 0.00 | 0.36 | 0.11 | 72 | 1022.7 |
| 20260507055004 | 47 | 180 | 8.7 | 14.8 | 0.00 | 0.36 | 0.11 | 72 | 1022.7 |
| 20260507054514 | 47 | 216 | 9.6 | 20.9 | 0.00 | 0.36 | 0.11 | 73 | 1022.8 |
| 20260507054004 | 48 | 208 | 13.0 | 20.9 | 0.00 | 0.36 | 0.11 | 70 | 1022.8 |
| 20260507053504 | 49 | 213 | 8.7 | 15.6 | 0.00 | 0.36 | 0.11 | 69 | 1022.7 |
| 20260507053006 | 49 | 243 | 7.0 | 14.8 | 0.00 | 0.36 | 0.11 | 69 | 1022.5 |
| 20260507052504 | 49 | 229 | 7.0 | 13.0 | 0.00 | 0.36 | 0.11 | 69 | 1022.4 |
| 20260507052003 | 49 | 220 | 6.1 | 13.9 | 0.00 | 0.36 | 0.11 | 69 | 1022.4 |
| 20260507051508 | 49 | 227 | 7.0 | 15.6 | 0.00 | 0.36 | 0.11 | 68 | 1022.3 |
| 20260507051007 | 49 | 202 | 10.4 | 15.6 | 0.00 | 0.36 | 0.11 | 68 | 1022.4 |
| 20260507050506 | 49 | 185 | 8.7 | 13.9 | 0.00 | 0.36 | 0.11 | 69 | 1022.4 |
| 20260507050011 | 49 | 219 | 5.2 | 13.9 | 0.00 | 0.36 | 0.11 | 69 | 1022.5 |
| 20260507045508 | 49 | 256 | 9.6 | 15.6 | 0.00 | 0.36 | 0.11 | 69 | 1022.5 |
| 20260507045006 | 49 | 243 | 9.6 | 18.2 | 0.00 | 0.36 | 0.11 | 69 | 1022.4 |
| 20260507044011 | 48 | 216 | 9.6 | 19.1 | 0.00 | 0.36 | 0.11 | 68 | 1022.4 |
| 20260507043507 | 48 | 237 | 9.6 | 19.1 | 0.00 | 0.36 | 0.11 | 67 | 1022.5 |
| 20260507043024 | 49 | 233 | 10.4 | 20.0 | 0.00 | 0.36 | 0.11 | 68 | 1022.5 |
| 20260507042512 | 49 | 223 | 11.3 | 20.0 | 0.00 | 0.36 | 0.11 | 69 | 1022.4 |
| 20260507042008 | 49 | 218 | 7.8 | 14.8 | 0.00 | 0.36 | 0.11 | 71 | 1022.5 |
| 20260507041507 | 48 | 231 | 8.7 | 14.8 | 0.00 | 0.36 | 0.11 | 71 | 1022.5 |
| 20260507041003 | 48 | 253 | 9.6 | 15.6 | 0.00 | 0.36 | 0.11 | 70 | 1022.5 |
| 20260507040504 | 48 | 195 | 11.3 | 19.1 | 0.00 | 0.36 | 0.11 | 70 | 1022.6 |
| 20260507040011 | 48 | 222 | 8.7 | 19.1 | 0.00 | 0.36 | 0.11 | 69 | 1022.5 |
| 20260507035507 | 48 | 210 | 9.6 | 17.4 | 0.00 | 0.36 | 0.11 | 69 | 1022.4 |
| 20260507035007 | 48 | 197 | 11.3 | 22.6 | 0.00 | 0.36 | 0.11 | 69 | 1022.4 |
| 20260507034514 | 48 | 230 | 14.8 | 22.6 | 0.00 | 0.36 | 0.11 | 68 | 1022.4 |
| 20260507034004 | 48 | 241 | 9.6 | 16.5 | 0.00 | 0.36 | 0.11 | 69 | 1022.4 |
| 20260507033507 | 48 | 226 | 12.2 | 19.1 | 0.00 | 0.36 | 0.11 | 68 | 1022.4 |
| 20260507033015 | 48 | 220 | 11.3 | 19.1 | 0.00 | 0.36 | 0.11 | 69 | 1022.3 |
| 20260507032504 | 48 | 191 | 10.4 | 18.2 | 0.00 | 0.36 | 0.11 | 71 | 1022.1 |
| 20260507032011 | 48 | 201 | 10.4 | 19.1 | 0.00 | 0.36 | 0.11 | 71 | 1022.3 |
| 20260507031011 | 47 | 204 | 13.0 | 20.9 | 0.00 | 0.36 | 0.11 | 73 | 1022.3 |
| 20260507030013 | 45 | 189 | 7.0 | 15.6 | 0.00 | 0.35 | 0.11 | 79 | 1022.4 |
| 20260507025504 | 45 | 202 | 7.8 | 15.6 | 0.00 | 0.35 | 0.11 | 79 | 1022.5 |
| 20260507025004 | 45 | 172 | 10.4 | 20.0 | 0.00 | 0.35 | 0.11 | 77 | 1022.6 |
| 20260507024514 | 45 | 191 | 10.4 | 20.0 | 0.00 | 0.35 | 0.11 | 75 | 1022.5 |
| 20260507024006 | 46 | 220 | 13.9 | 22.6 | 0.00 | 0.35 | 0.11 | 73 | 1022.6 |
| 20260507023505 | 47 | 219 | 14.8 | 22.6 | 0.00 | 0.35 | 0.11 | 69 | 1022.6 |
| 20260507023003 | 47 | 219 | 13.9 | 20.9 | 0.00 | 0.35 | 0.11 | 69 | 1022.6 |
| 20260507022504 | 48 | 185 | 9.6 | 19.1 | 0.00 | 0.35 | 0.11 | 72 | 1022.6 |
| 20260507022004 | 47 | 233 | 11.3 | 17.4 | 0.00 | 0.35 | 0.11 | 71 | 1022.6 |
| 20260507021504 | 47 | 238 | 11.3 | 17.4 | 0.00 | 0.35 | 0.11 | 69 | 1022.7 |
| 20260507021005 | 47 | 211 | 12.2 | 18.2 | 0.00 | 0.35 | 0.11 | 70 | 1022.7 |
| 20260507020504 | 47 | 204 | 11.3 | 18.2 | 0.00 | 0.35 | 0.11 | 71 | 1022.7 |
| 20260507020005 | 46 | 246 | 11.3 | 19.1 | 0.00 | 0.35 | 0.11 | 71 | 1022.7 |
| 20260507015504 | 46 | 201 | 11.3 | 19.1 | 0.00 | 0.35 | 0.11 | 71 | 1022.6 |
| 20260507015007 | 46 | 242 | 10.4 | 15.6 | 0.00 | 0.35 | 0.11 | 73 | 1022.7 |
| 20260507014504 | 46 | 231 | 9.6 | 15.6 | 0.00 | 0.35 | 0.11 | 74 | 1022.8 |
| 20260507014003 | 45 | 221 | 9.6 | 15.6 | 0.00 | 0.35 | 0.11 | 76 | 1022.8 |
| 20260507013504 | 45 | 204 | 9.6 | 15.6 | 0.00 | 0.35 | 0.11 | 78 | 1022.8 |
| 20260507013014 | 45 | 210 | 5.2 | 11.3 | 0.00 | 0.35 | 0.11 | 79 | 1022.9 |
| 20260507012511 | 44 | 224 | 7.8 | 11.3 | 0.00 | 0.35 | 0.11 | 80 | 1022.9 |
| 20260507012003 | 44 | 229 | 7.0 | 9.6 | 0.01 | 0.35 | 0.11 | 81 | 1022.7 |
| 20260507011504 | 43 | 231 | 3.5 | 8.7 | 0.01 | 0.35 | 0.11 | 82 | 1022.9 |
| 20260507011007 | 43 | 185 | 4.3 | 9.6 | 0.01 | 0.35 | 0.11 | 81 | 1022.9 |
| 20260507010504 | 43 | 226 | 6.1 | 11.3 | 0.01 | 0.35 | 0.11 | 81 | 1022.9 |
| 20260507010004 | 43 | 193 | 7.8 | 11.3 | 0.01 | 0.35 | 0.11 | 81 | 1023.0 |
| 20260507005508 | 42 | 195 | 6.1 | 8.7 | 0.01 | 0.35 | 0.11 | 81 | 1022.9 |
| 20260507005004 | 42 | 202 | 5.2 | 7.8 | 0.01 | 0.35 | 0.11 | 81 | 1022.8 |
| 20260507004508 | 42 | 194 | 3.5 | 7.0 | 0.01 | 0.35 | 0.11 | 81 | 1022.9 |
| 20260507004004 | 42 | 232 | 2.6 | 7.0 | 0.01 | 0.35 | 0.11 | 81 | 1022.7 |
| 20260507003508 | 42 | 212 | 3.5 | 7.0 | 0.01 | 0.35 | 0.11 | 81 | 1022.7 |
| 20260507003008 | 42 | 212 | 2.6 | 8.7 | 0.01 | 0.34 | 0.10 | 80 | 1022.8 |
| 20260507002503 | 42 | 220 | 3.5 | 10.4 | 0.01 | 0.34 | 0.10 | 80 | 1022.8 |
| 20260507002009 | 41 | 205 | 5.2 | 10.4 | 0.00 | 0.33 | 0.09 | 80 | 1022.8 |
| 20260507001510 | 42 | 214 | 5.2 | 15.6 | 0.02 | 0.33 | 0.09 | 80 | 1022.8 |
| 20260507001009 | 42 | 193 | 6.1 | 15.6 | 0.02 | 0.33 | 0.09 | 79 | 1022.6 |
| 20260507000503 | 42 | 238 | 7.8 | 13.0 | 0.02 | 0.33 | 0.09 | 80 | 1022.6 |
| 20260507000004 | 42 | 233 | 6.1 | 10.4 | 0.02 | 0.33 | 0.09 | 81 | 1022.6 |
| 20260506235504 | 41 | 235 | 3.5 | 6.1 | 0.02 | 0.33 | 0.09 | 81 | 1022.4 |
| 20260506235006 | 41 | 208 | 3.5 | 7.0 | 0.02 | 0.33 | 0.09 | 81 | 1022.5 |
| 20260506234506 | 40 | 204 | 2.6 | 10.4 | 0.02 | 0.33 | 0.09 | 81 | 1022.5 |
| 20260506234006 | 40 | 189 | 4.3 | 11.3 | 0.02 | 0.33 | 0.09 | 81 | 1022.5 |
| 20260506233505 | 40 | 227 | 5.2 | 13.9 | 0.03 | 0.33 | 0.09 | 81 | 1022.5 |
| 20260506233009 | 40 | 191 | 6.1 | 15.6 | 0.02 | 0.33 | 0.08 | 80 | 1022.6 |
| 20260506232506 | 40 | 233 | 8.7 | 26.9 | 0.02 | 0.33 | 0.08 | 79 | 1022.5 |
| 20260506232004 | 40 | 213 | 12.2 | 26.9 | 0.02 | 0.33 | 0.08 | 78 | 1022.6 |
| 20260506231519 | 41 | 251 | 11.3 | 16.5 | 0.00 | 0.31 | 0.07 | 80 | 1022.6 |
| 20260506231005 | 41 | 245 | 7.0 | 12.2 | 0.00 | 0.31 | 0.07 | 81 | 1022.3 |
| 20260506230508 | 41 | 244 | 4.3 | 11.3 | 0.00 | 0.31 | 0.07 | 82 | 1022.0 |
| 20260506230020 | 40 | 245 | 4.3 | 11.3 | 0.01 | 0.31 | 0.07 | 82 | 1022.0 |
| 20260506225507 | 40 | 260 | 4.3 | 11.3 | 0.03 | 0.31 | 0.07 | 82 | 1021.9 |
| 20260506225008 | 39 | 255 | 5.2 | 11.3 | 0.04 | 0.31 | 0.07 | 82 | 1021.7 |
| 20260506224512 | 39 | 258 | 4.3 | 16.5 | 0.05 | 0.31 | 0.07 | 81 | 1021.6 |
| 20260506224006 | 39 | 238 | 8.7 | 17.4 | 0.05 | 0.31 | 0.07 | 81 | 1021.6 |
| 20260506223504 | 39 | 216 | 8.7 | 17.4 | 0.04 | 0.30 | 0.06 | 81 | 1021.8 |
| 20260506223006 | 39 | 208 | 11.3 | 17.4 | 0.04 | 0.30 | 0.06 | 82 | 1022.0 |
| 20260506222509 | 39 | 250 | 6.1 | 11.3 | 0.04 | 0.30 | 0.06 | 82 | 1022.0 |
| 20260506222006 | 39 | 236 | 3.5 | 9.6 | 0.04 | 0.30 | 0.06 | 82 | 1021.9 |
| 20260506221507 | 38 | 233 | 5.2 | 14.8 | 0.04 | 0.30 | 0.06 | 82 | 1021.8 |
| 20260506221008 | 38 | 209 | 6.1 | 17.4 | 0.04 | 0.30 | 0.06 | 81 | 1021.7 |
| 20260506220508 | 38 | 185 | 9.6 | 19.1 | 0.04 | 0.30 | 0.06 | 81 | 1021.5 |
| 20260506220005 | 38 | 221 | 12.2 | 19.1 | 0.03 | 0.29 | 0.05 | 81 | 1021.7 |
| 20260506215507 | 39 | 199 | 10.4 | 15.6 | 0.02 | 0.28 | 0.03 | 81 | 1021.7 |
| 20260506215006 | 39 | 241 | 6.1 | 14.8 | 0.00 | 0.26 | 0.02 | 81 | 1021.6 |
| 20260506214520 | 39 | 209 | 2.6 | 4.3 | 0.00 | 0.25 | 0.01 | 82 | 1021.3 |
| 20260506213508 | 39 | 193 | 1.7 | 7.0 | 0.00 | 0.25 | 0.01 | 81 | 1020.7 |
| 20260506212506 | 39 | 175 | 2.6 | 7.8 | 0.00 | 0.25 | 0.01 | 81 | 1020.8 |
| 20260506212002 | 39 | 166 | 4.3 | 7.8 | 0.00 | 0.25 | 0.01 | 81 | 1020.8 |
| 20260506211004 | 39 | 185 | 4.3 | 7.8 | 0.00 | 0.25 | 0.01 | 81 | 1020.6 |
| 20260506210507 | 39 | 175 | 4.3 | 7.8 | 0.00 | 0.25 | 0.01 | 81 | 1020.6 |
| 20260506210016 | 39 | 198 | 5.2 | 7.8 | 0.00 | 0.25 | 0.01 | 81 | 1020.7 |
| 20260506205008 | 39 | 195 | 3.5 | 7.8 | 0.00 | 0.25 | 0.01 | 80 | 1020.4 |
| 20260506204008 | 39 | 213 | 4.3 | 9.6 | 0.00 | 0.25 | 0.00 | 80 | 1020.5 |
| 20260506203508 | 39 | 237 | 5.2 | 9.6 | 0.00 | 0.25 | 0.00 | 80 | 1020.3 |
| 20260506203012 | 39 | 233 | 4.3 | 11.3 | 0.00 | 0.25 | 0.00 | 80 | 1020.3 |
| 20260506202511 | 39 | 228 | 6.1 | 11.3 | 0.00 | 0.25 | 0.00 | 80 | 1020.1 |
| 20260506202008 | 38 | 225 | 7.0 | 11.3 | 0.00 | 0.25 | 0.00 | 80 | 1020.2 |
| 20260506201509 | 38 | 235 | 4.3 | 11.3 | 0.00 | 0.25 | 0.00 | 80 | 1020.1 |
| 20260506201008 | 38 | 224 | 7.0 | 11.3 | 0.00 | 0.25 | 0.00 | 81 | 1019.9 |
| 20260506200509 | 38 | 233 | 6.1 | 11.3 | 0.00 | 0.25 | 0.00 | 82 | 1019.8 |
| 20260506200009 | 38 | 245 | 4.3 | 7.8 | 0.00 | 0.25 | 0.00 | 82 | 1019.7 |
| 20260506195506 | 38 | 211 | 1.7 | 7.8 | 0.00 | 0.25 | 0.00 | 82 | 1019.8 |
| 20260506195009 | 38 | 227 | 3.5 | 7.8 | 0.00 | 0.25 | 0.00 | 82 | 1019.8 |
| 20260506194008 | 38 | 195 | 2.6 | 8.7 | 0.00 | 0.25 | 0.00 | 82 | 1020.0 |
| 20260506193508 | 38 | 217 | 3.5 | 8.7 | 0.00 | 0.25 | 0.00 | 82 | 1020.0 |
| 20260506192508 | 38 | 226 | 7.8 | 16.5 | 0.00 | 0.25 | 0.00 | 81 | 1019.9 |
| 20260506192010 | 39 | 251 | 8.7 | 16.5 | 0.00 | 0.25 | 0.00 | 80 | 1020.1 |
| 20260506191512 | 39 | 200 | 7.8 | 11.3 | 0.00 | 0.24 | 0.00 | 79 | 1020.3 |
| 20260506191010 | 39 | 175 | 3.5 | 7.8 | 0.00 | 0.24 | 0.00 | 79 | 1020.0 |
| 20260506190023 | 38 | 249 | 3.5 | 7.0 | 0.00 | 0.24 | 0.00 | 80 | 1019.8 |
| 20260506185509 | 38 | 269 | 3.5 | 7.0 | 0.00 | 0.24 | 0.00 | 80 | 1019.8 |
| 20260506185007 | 38 | 262 | 2.6 | 7.0 | 0.00 | 0.24 | 0.00 | 80 | 1019.7 |
| 20260506184526 | 38 | 254 | 1.7 | 7.0 | 0.00 | 0.24 | 0.00 | 80 | 1019.6 |
| 20260506184007 | 38 | 265 | 2.6 | 6.1 | 0.00 | 0.24 | 0.00 | 80 | 1019.5 |
| 20260506183015 | 38 | 240 | 2.6 | 10.4 | 0.00 | 0.24 | 0.00 | 80 | 1019.4 |
| 20260506182506 | 38 | 258 | 6.1 | 10.4 | 0.00 | 0.24 | 0.00 | 80 | 1019.4 |
| 20260506182013 | 38 | 246 | 5.2 | 8.7 | 0.00 | 0.24 | 0.00 | 80 | 1019.3 |
| 20260506181008 | 38 | 245 | 3.5 | 12.2 | 0.00 | 0.24 | 0.00 | 80 | 1019.0 |
| 20260506180511 | 39 | 268 | 7.0 | 12.2 | 0.00 | 0.24 | 0.00 | 80 | 1019.1 |
| 20260506174518 | 39 | 263 | 6.1 | 11.3 | 0.00 | 0.24 | 0.00 | 80 | 1019.1 |
| 20260506174012 | 39 | 267 | 4.3 | 13.0 | 0.00 | 0.24 | 0.00 | 79 | 1019.1 |
| 20260506173508 | 39 | 255 | 7.8 | 13.0 | 0.00 | 0.24 | 0.00 | 79 | 1019.1 |
| 20260506173008 | 39 | 245 | 7.0 | 14.8 | 0.00 | 0.24 | 0.00 | 78 | 1019.2 |
| 20260506172504 | 40 | 247 | 8.7 | 14.8 | 0.00 | 0.24 | 0.00 | 78 | 1019.2 |
| 20260506172003 | 40 | 245 | 10.4 | 14.8 | 0.00 | 0.24 | 0.00 | 78 | 1019.2 |
| 20260506171507 | 40 | 251 | 8.7 | 13.9 | 0.00 | 0.24 | 0.00 | 78 | 1019.2 |
| 20260506171005 | 40 | 241 | 9.6 | 13.9 | 0.00 | 0.24 | 0.00 | 78 | 1019.2 |
| 20260506170504 | 40 | 223 | 7.0 | 13.9 | 0.00 | 0.24 | 0.00 | 79 | 1019.3 |
| 20260506170004 | 39 | 243 | 7.0 | 11.3 | 0.00 | 0.24 | 0.00 | 79 | 1019.2 |
| 20260506165504 | 39 | 238 | 5.2 | 13.0 | 0.00 | 0.24 | 0.00 | 79 | 1019.2 |
| 20260506165005 | 40 | 239 | 6.1 | 13.0 | 0.00 | 0.24 | 0.00 | 78 | 1019.3 |
| 20260506164506 | 40 | 250 | 7.0 | 13.9 | 0.00 | 0.24 | 0.00 | 78 | 1019.2 |
| 20260506164009 | 40 | 243 | 7.0 | 13.9 | 0.00 | 0.24 | 0.00 | 77 | 1019.2 |
| 20260506163006 | 40 | 229 | 7.0 | 12.2 | 0.00 | 0.24 | 0.00 | 77 | 1019.3 |
| 20260506161504 | 40 | 197 | 5.2 | 8.7 | 0.00 | 0.24 | 0.00 | 78 | 1019.3 |
| 20260506161004 | 40 | 200 | 4.3 | 7.8 | 0.00 | 0.24 | 0.00 | 79 | 1019.2 |
| 20260506160504 | 40 | 225 | 2.6 | 7.8 | 0.00 | 0.24 | 0.00 | 79 | 1019.3 |
| 20260506160015 | 40 | 171 | 4.3 | 7.8 | 0.00 | 0.24 | 0.00 | 78 | 1019.2 |
| 20260506155505 | 40 | 185 | 1.7 | 7.0 | 0.00 | 0.24 | 0.00 | 78 | 1019.3 |
| 20260506155008 | 40 | 200 | 3.5 | 9.6 | 0.00 | 0.24 | 0.00 | 78 | 1019.3 |
| 20260506154511 | 41 | 197 | 5.2 | 11.3 | 0.00 | 0.24 | 0.00 | 77 | 1019.3 |
| 20260506154007 | 41 | 157 | 5.2 | 11.3 | 0.00 | 0.24 | 0.00 | 76 | 1019.3 |
| 20260506153503 | 41 | 185 | 7.8 | 10.4 | 0.00 | 0.24 | 0.00 | 75 | 1019.3 |
| 20260506153009 | 42 | 202 | 6.1 | 11.3 | 0.00 | 0.24 | 0.00 | 74 | 1019.3 |
| 20260506152502 | 42 | 229 | 7.0 | 11.3 | 0.00 | 0.24 | 0.00 | 74 | 1019.3 |
| 20260506152006 | 42 | 256 | 2.6 | 7.8 | 0.00 | 0.24 | 0.00 | 74 | 1019.2 |
| 20260506151514 | 41 | 219 | 1.7 | 4.3 | 0.00 | 0.24 | 0.00 | 74 | 1019.2 |
| 20260506151003 | 41 | 185 | 0.0 | 3.5 | 0.00 | 0.24 | 0.00 | 74 | 1019.2 |
| 20260506150013 | 41 | 172 | 1.7 | 5.2 | 0.00 | 0.24 | 0.00 | 73 | 1019.4 |
| 20260506145508 | 41 | 196 | 1.7 | 5.2 | 0.00 | 0.24 | 0.00 | 73 | 1019.4 |
| 20260506145006 | 41 | 206 | 2.6 | 7.8 | 0.00 | 0.24 | 0.00 | 73 | 1019.3 |
| 20260506144509 | 42 | 229 | 2.6 | 8.7 | 0.00 | 0.24 | 0.00 | 73 | 1019.3 |
| 20260506144006 | 42 | 255 | 3.5 | 9.6 | 0.00 | 0.24 | 0.00 | 72 | 1019.3 |
| 20260506143506 | 42 | 223 | 5.2 | 10.4 | 0.00 | 0.24 | 0.00 | 72 | 1019.3 |
| 20260506143013 | 42 | 274 | 6.1 | 11.3 | 0.00 | 0.24 | 0.00 | 72 | 1019.3 |
| 20260506142503 | 42 | 243 | 7.0 | 13.0 | 0.00 | 0.24 | 0.00 | 72 | 1019.2 |
| 20260506142002 | 42 | 220 | 6.1 | 14.8 | 0.00 | 0.24 | 0.00 | 71 | 1019.1 |
| 20260506141504 | 42 | 246 | 9.6 | 14.8 | 0.00 | 0.24 | 0.00 | 72 | 1019.1 |
| 20260506141005 | 43 | 251 | 8.7 | 16.5 | 0.00 | 0.24 | 0.00 | 72 | 1019.1 |
| 20260506140505 | 43 | 229 | 12.2 | 16.5 | 0.00 | 0.24 | 0.00 | 71 | 1019.1 |
| 20260506140003 | 43 | 247 | 8.7 | 14.8 | 0.00 | 0.24 | 0.00 | 72 | 1019.1 |
| 20260506135504 | 43 | 248 | 7.0 | 13.9 | 0.00 | 0.24 | 0.24 | 74 | 1019.2 |
| 20260506135002 | 44 | 211 | 8.7 | 13.9 | 0.00 | 0.24 | 0.24 | 74 | 1019.1 |
| 20260506134506 | 44 | 235 | 7.0 | 15.6 | 0.00 | 0.24 | 0.24 | 74 | 1018.9 |
| 20260506134002 | 44 | 245 | 9.6 | 18.2 | 0.00 | 0.24 | 0.24 | 73 | 1018.9 |
| 20260506133004 | 45 | 237 | 7.0 | 16.5 | 0.00 | 0.24 | 0.24 | 74 | 1018.9 |
| 20260506131503 | 45 | 236 | 6.1 | 14.8 | 0.00 | 0.24 | 0.24 | 75 | 1018.8 |
| 20260506130506 | 45 | 259 | 9.6 | 13.9 | 0.00 | 0.24 | 0.24 | 77 | 1018.6 |
| 20260506130008 | 46 | 268 | 7.0 | 12.2 | 0.00 | 0.24 | 0.24 | 76 | 1018.6 |